Weather History for Kalispell, MT

Change the Weather History Date:

Wednesday, January 15, 2014

  Actual Average Record
Temperature  
Mean Temperature 33 °F 24 °F  
Max Temperature 42 °F 31 °F 48 °F (1921)
Min Temperature 24 °F 17 °F -25 °F (2005)
Degree Days  
Heating Degree Days 32 41  
Month to date heating degree days 563 634  
Since 1 July heating degree days 4002 4148  
Cooling Degree Days 0 0  
Month to date cooling degree days 0 0  
Year to date cooling degree days 0 0  
Moisture  
Dew Point 27 °F    
Average Humidity 76    
Maximum Humidity 92    
Minimum Humidity 60    
Precipitation  
Precipitation 0.00 in 0.05 in 0.39 in (1974)
Month to date precipitation 0.73 0.74  
Year to date precipitation 0.73 0.74  
Snow  
Snow 0.00 in - - ()
Month to date snowfall 10.1  
Year to date snowfall 10.1  
Since 1 July snowfall 43.6  
Snow Depth 0.00 in    
Sea Level Pressure  
Sea Level Pressure 30.40 in    
Wind  
Wind Speed 6 mph (SSW)    
Max Wind Speed 14 mph    
Max Gust Speed 17 mph    
Visibility 10 miles    
Events      
T = Trace of Precipitation, MM = Missing Value Source: NWS Daily Summary

Daily Weather History Graph

Daily Weather History Graph

Search for Another Location

Airport:

Trip Planner

Search our weather history database for the weather conditions in past years. The results will help you decide how hot, cold, wet, or windy it might be!

Date:

Astronomy

Jan. 15, 2014 Rise Set
Actual Time 8:23 AM MST 5:10 PM MST
Civil Twilight 7:47 AM MST 5:45 PM MST
Nautical Twilight 7:08 AM MST 6:24 PM MST
Astronomical Twilight 6:31 AM MST 7:02 PM MST
Moon 5:17 PM MST (1/15) 7:37 AM MST (1/15)
Length of Visible Light 9h 58m
Length of Day
8h 47m
Full, 100% of the Moon is Illuminated
Jan 15
Full
Jan 15
Full
Jan 23
Last Quarter
Jan 30
New
Feb 6
First Quarter

Hourly Weather History & Observations

Time (MST) Temp. Windchill Dew Point Humidity Pressure Visibility Wind Dir Wind Speed Gust Speed Precip Events Conditions
12:55 AM 37.0 °F 30.4 °F 30.0 °F 76% 30.40 in 10.0 mi South 9.2 mph - N/A   Mostly Cloudy
1:55 AM 36.0 °F 29.0 °F 28.9 °F 76% 30.36 in 10.0 mi South 9.2 mph - N/A   Clear
2:55 AM 36.0 °F 31.1 °F 28.9 °F 76% 30.34 in 10.0 mi South 5.8 mph - N/A   Clear
3:55 AM 36.0 °F 29.6 °F 28.0 °F 73% 30.35 in 10.0 mi South 8.1 mph - N/A   Clear
4:55 AM 32.0 °F 26.4 °F 27.0 °F 82% 30.38 in 10.0 mi West 5.8 mph - N/A   Clear
5:55 AM 30.0 °F 25.2 °F 26.1 °F 85% 30.38 in 10.0 mi SW 4.6 mph - N/A   Clear
6:55 AM 27.0 °F 23.0 °F 25.0 °F 92% 30.38 in 10.0 mi WSW 3.5 mph - N/A   Clear
7:55 AM 25.0 °F 20.7 °F 23.0 °F 92% 30.40 in 10.0 mi NNE 3.5 mph - N/A   Clear
8:55 AM 24.1 °F 17.0 °F 21.9 °F 91% 30.43 in 10.0 mi SW 5.8 mph - N/A   Clear
9:55 AM 28.9 °F - 26.1 °F 89% 30.44 in 10.0 mi Calm Calm - N/A   Clear
10:55 AM 32.0 °F - 27.0 °F 82% 30.43 in 10.0 mi Calm Calm - N/A   Clear
11:55 AM 36.0 °F 30.3 °F 28.0 °F 73% 30.40 in 10.0 mi SSW 6.9 mph - N/A   Clear
12:55 PM 39.9 °F 33.9 °F 28.9 °F 65% 30.38 in 10.0 mi SSE 9.2 mph - N/A   Clear
1:55 PM 41.0 °F 34.7 °F 28.0 °F 60% 30.35 in 10.0 mi South 10.4 mph - N/A   Clear
2:55 PM 41.0 °F 33.9 °F 28.9 °F 62% 30.36 in 10.0 mi SSE 12.7 mph - N/A   Clear
3:55 PM 41.0 °F 34.7 °F 30.0 °F 65% 30.37 in 10.0 mi South 10.4 mph - N/A   Clear
4:55 PM 39.9 °F 34.5 °F 28.9 °F 65% 30.39 in 10.0 mi SSE 8.1 mph - N/A   Clear
5:55 PM 39.9 °F 34.5 °F 28.9 °F 65% 30.40 in 10.0 mi South 8.1 mph - N/A   Clear
6:55 PM 36.0 °F 33.3 °F 28.0 °F 73% 30.42 in 10.0 mi SW 3.5 mph - N/A   Clear
7:55 PM 36.0 °F 32.1 °F 28.0 °F 73% 30.44 in 10.0 mi SW 4.6 mph - N/A   Clear
8:55 PM 34.0 °F - 27.0 °F 75% 30.46 in 10.0 mi Calm Calm - N/A   Clear
9:55 PM 32.0 °F - 27.0 °F 82% 30.47 in 10.0 mi Calm Calm - N/A   Clear
10:55 PM 30.0 °F 26.5 °F 26.1 °F 85% 30.49 in 10.0 mi Variable 3.5 mph - N/A   Clear
11:55 PM 28.9 °F - 26.1 °F 89% 30.49 in 10.0 mi Calm Calm - N/A   Clear